Regional Weather Roundup
Issued by NWS Grand Forks, ND

Home | Current Version | Previous Version | Text Only | Print | Product List | Glossary Off
Versions: 1 2 3 4 5 6 7 8 9 10 11 12 13 14 15 16 17 18 19 20 21 22 23 24 25 26 27 28 29 30 31 32 33 34 35 36 37 38 39 40 41 42 43 44 45 46 47 48 49 50

000
ASUS43 KFGF 301131
RWRFGF
PRAIRIE TO PINES  WEATHER ROUNDUP
NATIONAL WEATHER SERVICE EASTERN NORTH DAKOTA/GRAND FORKS ND
600 AM CDT SAT AUG 30 2014

 **SATELLITE DATA USED TO AUGMENT SKY COVER AT AUTOMATED STATIONS**
 *****  WEATHER ACROSS EASTERN NORTH DAKOTA  *****

CITY           SKY/WX    TMP DP  RH WIND       PRES   REMARKS
GRAND FORKS    CLEAR     49  47  93 NW6       29.95R
GRAND FRKS AFB CLEAR     49  48  99 N6        29.96R
GRAND FRKS NWS   N/A     48 N/A N/A N2          N/A
DEVILS LAKE    CLEAR     45  39  81 NE5       29.96S
FARGO          CLOUDY    56  52  86 N13       29.91R
WAHPETON ARPT  CLOUDY    59  52  77 N10       29.90R
$$

 ***** WEATHER ACROSS CENTRAL AND WESTERN NORTH DAKOTA  *****

CITY           SKY/WX    TMP DP  RH WIND       PRES   REMARKS
BISMARCK       FOG       46  46 100 CALM      29.98F VSB 3/4
MINOT          CLEAR     45  43  93 E5        29.95S
JAMESTOWN      CLEAR     49  48  97 NW3       29.96S
MINOT AFB      CLEAR     45  45 100 SE7       29.94F FOG
GARRISON         N/A     50  49  96 E3        29.95F
WILLISTON      CLEAR     56  51  84 S6        29.90F
DICKINSON      CLEAR     51  49  92 SE12      29.93F
HETTINGER      MOCLDY    52  50  93 SE7       29.96S
$$

 *****  OTHER AIRPORT OBSERVATIONS IN OUR AREA  *****

CITY           SKY/WX    TMP DP  RH WIND       PRES   REMARKS
WALHALLA       FAIR      45  45 100 CALM      29.98S
GRAFTON AIRPOR FAIR      46  46 100 NW8       29.96S
VALLEY CITY AR CLOUDY    50  50 100 N7        29.95F
CANDO          FOG       39  39 100 CALM      29.98S VSB 1/4
CAVALIER APRT  FAIR      45  45 100 NW6       29.97S
GWINNER        CLOUDY    57  54  88 N8        29.94S
SHEYENNE NWR     N/A     58  52  80 N7        29.95S
ROLLA          FAIR      37  37 100 S3        29.98F
 ***** THE ABOVE OBSERVATIONS ARE NON NWS ARE NOT QUALITY
       CONTROLLED AND MAY MIS-REPORT RAIN FOR SNOW...
$$

  *****  WEATHER ACROSS NORTHERN MINNESOTA  *****

CITY           SKY/WX    TMP DP  RH WIND       PRES   REMARKS
FLAG ISLAND    MOCLDY    57  54  88 N7        29.93R
WARROAD        CLEAR     48  45  87 NW7       29.95R
ROSEAU         CLEAR     46  43  87 CALM      29.95R HAZE
HALLOCK        CLEAR     45  43  93 N3        29.96R
THF RVR FALLS  CLEAR     50  48  93 N6        29.94R
BAUDETTE       PTCLDY    55  53  93 N7        29.92R
WASKISH        CLOUDY    55  54  94 N5        29.92R
CROOKSTON      CLEAR     48  46  93 N3        29.95R
$$
  *****  WEATHER ACROSS CENTRAL AND WEST MINNESOTA  *****

CITY           SKY/WX    TMP DP  RH WIND       PRES   REMARKS
FOSSTON        CLOUDY    55  54  94 N12       29.92S
BEMIDJI        CLOUDY    57  54  90 N7        29.89R
PARK RAPIDS    CLOUDY    59  56  89 N9        29.87R
ELBOW LAKE     CLOUDY    60  59  99 NW9       29.88R FOG
WADENA         CLOUDY    59  57  94 N7        29.87R
DETROIT LAKES  CLOUDY    59  57  94 N7        29.90S
MOORHEAD       CLOUDY    57  55  94 N12       29.91R
FERGUS FALLS   CLOUDY    61  57  88 N7        29.88R
MORRIS MN      CLOUDY    61  61 100 NW13      29.87R
STAPLES        CLOUDY    61  61 100 NW8       29.86R FOG
$$
  *****  WEATHER ELSEWHERE ACROSS MINNESOTA  *****

CITY           SKY/WX    TMP DP  RH WIND       PRES   REMARKS
DULUTH         MOCLDY    61  58  90 N6        29.83R
INTRNTL FALLS  CLOUDY    58  54  86 NE12      29.89R
ELY            CLOUDY    61  59  94 CALM      29.84R FOG
CLOQUET        MOCLDY    59  57  94 N6        29.83R FOG
WHEATON        CLOUDY    57  55  94 NW12      29.91R
BRAINERD       CLOUDY    64  63  96 N8        29.84R
HIBBING        CLOUDY    63  60  90 N6        29.84R
ALEXANDRIA     CLOUDY    65  64  97 NW7       29.87R
SAINT CLOUD    CLOUDY    67  65  93 N3        29.82R
MINNEAPOLIS    CLOUDY    67  66  97 N7        29.79R
$$

  *****  WEATHER ACROSS SOUTH DAKOTA  *****

CITY           SKY/WX    TMP DP  RH WIND       PRES   REMARKS
SIOUX FALLS    CLOUDY    65  63  93 NW9       29.89S
BROOKINGS      NOT AVBL
WATERTOWN      CLOUDY    59  58  96 N10       29.90S FOG
HURON          CLOUDY    60  56  86 NW12      29.93R
SISSETON         N/A     59  57  93 N12       29.89S
ABERDEEN       CLOUDY    58  56  93 N9        29.94S
MITCHELL       CLOUDY    61  59  93 NW9       29.93S
PIERRE         CLEAR     51  51 100 N6        29.95F
MOBRIDGE       CLEAR     54  54 100 NE5       29.94F
RAPID CITY     CLEAR     54  52  93 S7        29.97F
$$

  *****  SOME WEATHER IN NEARBY STATES *****

CITY           SKY/WX    TMP DP  RH WIND       PRES   REMARKS
GLASGOW MT     CLEAR     55  52  89 E15       29.77F
GREAT FALLS MT CLOUDY    60  44  55 W9        29.81R
CHEYENNE WY    CLEAR     50  46  86 SW7       30.12F
SCOTTSBLUFF NE CLEAR     54  53  97 E7        30.02F
OMAHA NE       CLEAR     63  61  93 NW6       29.89R
DES MOINES IA  CLOUDY    67  64  90 W5        29.84R
DAVENPORT IA   MOCLDY    69  67  93 S7        29.82F
CHICAGO IL     MOCLDY    73  66  78 SW10      29.85R
EAU CLAIRE WI  LGT RAIN  66  66 100 NW3       29.76R FOG
LA CROSSE WI   LGT RAIN  69  66  90 CALM      29.74S
$$

  *****  SOME NATIONAL WEATHER *****

CITY           SKY/WX    TMP DP  RH WIND       PRES   REMARKS
LA GUARDIA NY  PTCLDY    68  55  63 CALM      30.27R
RALEIGH NC     CLOUDY    72  67  84 SE3       30.22R
ATLANTA GA     PTCLDY    74  66  76 CALM      30.14R
NEW ORLEANS LA LGT RAIN  80  76  87 SE6       29.98F
OKLAHOMA CITY  PTCLDY    68  65  90 S5        29.96S
ALBUQUERQUE NM CLEAR     64  41  42 N8        30.15S
SALT LAKE CITY MOCLDY    71  45  39 SE8       29.90S
LOS ANGELES CA MOCLDY    68  64  87 W3        29.81S
BOISE ID       MOCLDY    67  44  43 NW9       29.84R
SEATTLE WA     MOCLDY    61  55  81 S6        29.95S
$$

*** WEATHER ACROSS MANITOBA...SASKATCHEWAN AND ONTARIO ***
                ***ONTARIO***

CITY           SKY/WX    TMP DP  RH WIND       PRES   REMARKS
GERALDTON      MOCLDY    57  57 100 N3        29.84R
THUNDER BAY    MOCLDY    57  57 100 SW2       29.82R
SIOUX LOOKOUT  CLOUDY    55  54  94 VRB3      29.92R
TORONTO        MOCLDY    66  61  82 S5        30.05R
BIG TROUT LK   PTCLDY    46  45  93 N6        29.93R
PICKLE LAKE    CLOUDY    54  52  94 N6        29.92
DRYDEN         CLOUDY    55  54  94 N6        29.93R
KENORA         PTCLDY    50  50 100 N5        29.95R
$$
                *** MANITOBA***

CITY           SKY/WX    TMP DP  RH WIND       PRES   REMARKS
BRANDON        PTCLDY    41  39  93 E5        29.97F
DAUPHIN        CLEAR     41  41 100 CALM      29.94F
ISLAND LAKE    PTCLDY    50  48  93 CALM      29.97S
PILOT MOUND      N/A     37  37 100 SW2         N/A
THE PAS        PTCLDY    43  43 100 SE6       29.89S
THOMPSON       MOCLDY    36  36 100 CALM      29.93S
WINNIPEG       CLEAR     41  41 100 CALM      29.98R
LYNN LAKE      CLEAR     41  39  93 MISG      29.87F
CHURCHILL      CLEAR     45  39  81 W13       29.81R
GILLAM         MOCLDY    41  39  93 SW6       29.91R
$$
                ***SASKATCHEWAN***

CITY           SKY/WX    TMP DP  RH WIND       PRES   REMARKS
ESTEVAN        PTCLDY    52  50  93 SE5       29.90F
KINDERSLEY     MOCLDY    57  54  88 S9        29.60F
LLOYDMINSTER   LGT RAIN  52  48  87 W3        29.60F
PRINCE ALBERT  CLOUDY    54  48  82 E10G18    29.72F
REGINA         CLEAR     52  48  87 SE16      29.81F
YORKTON        CLEAR     46  45  93 SE8       29.89F
N. BATTLEFORD  CLOUDY    52  50  93 E12       29.63F
LA RONGE       PTCLDY    54  46  76 SE8       29.78F
SASKATOON      MOCLDY    55  48  76 SE13      29.67F
SWIFT CURRENT  LGT RAIN  59  52  77 S15       29.68F
$$
NOTE: THESE ARE AUTOMATED STATIONS WITH LIMITED QUALITY CONTROL
      "FAIR" INDICATES FEW OR NO CLOUDS BELOW 12,000 FEET WITH NO
      SIGNIFICANT WEATHER AND/OR OBSTRUCTIONS TO VISIBILITY.
      SKY/WX - SKY CONDITION AND SIGNIFICANT WEATHER.
      TMP - AIR TEMPERATURE.    DP   - DEWPOINT TEMPERATURE.
      RH  - RELATIVE HUMIDITY.  PRES - PRESSURE.
      HX  - HEAT INDEX.         WCI  - WIND CHILL INDEX.
$



USA.gov is the U.S. government's official web portal to all federal, state and local government web resources and services.